Regional Weather Roundup
Issued by NWS

Home | Current Version | Previous Version | Text Only | Print | Product List | Glossary On
Versions: 1 2 3 4 5 6 7 8 9 10 11 12 13 14 15 16 17 18 19 20 21 22 23 24 25 26 27 28 29 30 31 32 33 34 35 36 37 38 39 40 41 42 43 44 45 46 47 48 49 50
000
ASUS43 KTOP 050959
RWRKS

WEATHER ROUNDUP FOR KANSAS
NATIONAL WEATHER SERVICE GOODLAND KS
500 AM CDT TUE MAY 05 2015

NOTE:  "FAIR" INDICATES FEW OR NO CLOUDS BELOW 12,000 FEET WITH NO
SIGNIFICANT WEATHER AND/OR OBSTRUCTIONS TO VISIBILITY.

KSZ001>006-013>018-027>032-041>047-051100-
NORTHWEST KANSAS

CITY           SKY/WX    TMP DP  RH WIND       PRES   REMARKS
GOODLAND       CLOUDY    51  51 100 E7        30.04F FOG
HAYS           CLOUDY    59  52  77 SE10      30.01F
HILL CITY      CLOUDY    58  57  97 SE3       30.02F FOG
RUSSELL        CLOUDY    60  59  96 E9        30.01F
$$

KSZ061>065-074>080-084>089-051100-
SOUTHWEST KANSAS

CITY           SKY/WX    TMP DP  RH WIND       PRES   REMARKS
DODGE CITY     CLOUDY    59  57  93 E10       29.99S FOG
ELKHART          N/A     56  52  87 E8          N/A
GARDEN CITY    LGT RAIN  57  56  96 NE10      29.98F
GREAT BEND     CLOUDY    61  55  82 E9        30.01F
LIBERAL        CLOUDY    61  55  82 E5        29.96F
$$

KSZ066>073-081>083-090>101-051100-
SOUTHEAST KANSAS

CITY           SKY/WX    TMP DP  RH WIND       PRES   REMARKS
CHANUTE        MOCLDY    60  56  86 SE7       30.08S
COFFEYVILLE    MOCLDY    57  54  89 SE5       30.08S
HUTCHINSON     MOCLDY    63  56  78 SE8       30.02F
MEDICINE LODGE   N/A     61  57  87 E6        30.00S
NEWTON         MOCLDY    61  52  72 S7        30.05F
PARSONS        PTCLDY    62  56  80 SE5       30.09F
WICHITA INTL   MOCLDY    64  54  69 SE8       30.03F
WICHITA JABRA  MOCLDY    63  54  72 S8        30.04F
WINFIELD       MOCLDY    62  54  74 E7        30.05S
$$

KSZ007>012-019>026-033>040-048>060-102>105-051100-
NORTHEAST KANSAS

CITY           SKY/WX    TMP DP  RH WIND       PRES   REMARKS
CONCORDIA      CLOUDY    60  58  92 S6        30.03F
EMPORIA        CLEAR     60  57  89 SE7       30.05F
LAWRENCE       PTCLDY    60  58  92 SE3       30.07S
MANHATTAN      CLOUDY    59  58  96 CALM      30.04F
OLATHE IND     MOCLDY    60  59  96 SE6       30.09R
OLATHE EXE     MOCLDY    60  59  96 SE5       30.08R
SALINA         MOCLDY    61  57  87 E3        30.04F
TOPEKA BILLARD MOCLDY    60  59  96 CALM      30.06S
TOPEKA FORBES  MOCLDY    60  58  92 SE6       30.06S
$$


USA.gov is the U.S. government's official web portal to all federal, state and local government web resources and services.